Terug naar catalogus

ONEWEB-0570

ActiefCommunicatiePO
NORAD 55149·PAYLOAD·🇬🇧 United Kingdom

Gelanceerd Jan 10, 2023 vanaf Cape Canaveral Space Force Station

Loading…

Volgende Passages (komende 24 uur)

TLE

VersSource: CelesTrak SupGP

Epoch: Sep 14, 2026, 09:11 UTC

1 55149C 23004K   26257.38279352 -.00003199  00000+0 -81239-2 0  2579
2 55149  87.9162 317.7427 0001912 113.6256 358.2548 13.18689276    14

Volg ONEWEB-0570 in realtime met AllMySat

Download on the App Store